Capitol Logistics 408


KTUL
Tulsa International Airport
Tulsa, Oklahoma, US
KRFD
Chicago/Rockford International Airport
Rockford, Illinois, US

Activity Log

Date Flight Route Aircraft Duration
09/13/2019 CPX408 TUL J87 IRK J26 BDF B752 1h 24m
01/17/2019 CPX408 TUL5 EOS J181 BAYLI J105 BDF B752 1h 25m

Route Details

Aircraft Information
Primary: Boeing 757-200SF
Backup: Boeing 737-800BCF
Route Data
Distance: 479nm
Sched. Duration: 1h 19m
Avg. Duration: 1h 24m (+5m)
Times Flown: 2
Recm'd Route: TUL5 EOS J181 BAYLI J105 BDF
Planned Altitude: 36,000ft
Origin Wx: KTUL 190853Z 35009KT 10SM OVC140 05/M02 A3023 RMK AO2 SLP237 T00501017 51021
Dest. Wx: KRFD 190854Z 24004KT 10SM OVC120 M07/M11 A3013 RMK AO2 SLP214 T10721111 51012 $
Notes:

Financial History
Total Freight: 85,063lbs
Average Load: 42,532lbs/flt
Fuel Used: 23,581lbs
Avg. Fuel Used: 11,791lbs/flt
Fuel Expense: $11,083
Avg. Fuel Expense: $5,542
Avg. Fuel Cost: $0.47/lbs
Total Gross Income: $106,329
Pilot Pay: $378
Total Expenses: $11,588
Total Revenue: $83,112
Average Revenue: $53,164.38